EW2093 Weather Reports


time (UTC)temp
C
wind
direction
speed
KPH
gust
KPH
rain 1hr
cm
rain 24hr
cm
rain mn
cm
humidity
%
barometer
mb
20260508005028 6 2 1.6 3.2 0.00 0.00 0.00 91 1012.3
20260508004528 6 2 0.0 0.0 0.00 0.00 0.00 90 1012.3
20260508004029 6 2 0.0 1.6 0.00 0.00 0.00 90 1012.3
20260508003531 7 2 0.0 3.2 0.00 0.00 0.00 90 1012.4
20260508003032 7 2 0.0 4.8 0.00 0.00 0.00 90 1012.4
20260508002534 7 2 1.6 4.8 0.00 0.00 0.00 91 1012.4
20260508002034 7 12 1.6 3.2 0.00 0.00 0.00 91 1012.3
20260508001533 7 12 0.0 3.2 0.00 0.00 0.00 92 1012.4
20260508001054 7 12 0.0 3.2 0.00 0.00 0.00 91 1012.5
20260508000534 7 12 1.6 3.2 0.00 0.00 0.00 91 1012.5
20260508000043 7 12 0.0 1.6 0.00 0.00 0.00 90 1012.5
20260507235518 7 12 0.0 4.8 0.00 0.00 0.00 90 1012.5
20260507235032 7 12 1.6 4.8 0.00 0.00 0.00 90 1012.5
20260507234534 7 12 1.6 4.8 0.00 0.00 0.00 89 1012.5
20260507234035 7 28 3.2 3.2 0.00 0.00 0.00 90 1012.4
20260507233516 7 44 1.6 3.2 0.00 0.00 0.00 89 1012.4
20260507233056 8 50 0.0 0.0 0.00 0.00 0.00 89 1012.3
20260507232516 8 50 0.0 0.0 0.00 0.00 0.00 90 1012.3
20260507232044 8 50 0.0 0.0 0.00 0.00 0.00 90 1012.3
20260507231525 8 50 0.0 1.6 0.00 0.00 0.00 90 1012.3
20260507231025 8 50 1.6 1.6 0.00 0.00 0.00 90 1012.4
20260507230546 8 50 0.0 1.6 0.00 0.00 0.00 90 1012.4
20260507230016 8 50 0.0 1.6 0.00 0.00 0.00 90 1012.4
20260507225540 8 50 0.0 1.6 0.00 0.00 0.00 90 1012.6
20260507225020 8 50 0.0 3.2 0.00 0.00 0.00 89 1012.6
20260507224521 8 50 0.0 3.2 0.00 0.00 0.00 89 1012.6
20260507224022 8 50 0.0 4.8 0.00 0.00 0.00 89 1012.7
20260507223524 8 50 1.6 4.8 0.00 0.00 0.00 89 1012.7
20260507223024 8 50 1.6 3.2 0.00 0.00 0.00 89 1012.7
20260507222527 8 50 1.6 3.2 0.00 0.00 0.00 89 1012.7
20260507222028 8 50 0.0 3.2 0.00 0.00 0.00 89 1012.8
20260507221531 8 50 0.0 3.2 0.00 0.00 0.00 89 1012.8
20260507221031 8 50 1.6 3.2 0.00 0.00 0.00 88 1012.8
20260507220534 8 50 1.6 3.2 0.00 0.00 0.00 88 1012.8
20260507220035 8 50 0.0 3.2 0.00 0.00 0.00 88 1012.7
20260507215517 9 50 0.0 3.2 0.00 0.00 0.00 87 1012.7
20260507215019 9 50 0.0 3.2 0.00 0.00 0.00 87 1012.7
20260507214520 9 50 1.6 3.2 0.00 0.00 0.00 87 1012.6
20260507214027 9 50 1.6 4.8 0.00 0.00 0.00 86 1012.6
20260507213518 9 50 1.6 4.8 0.00 0.00 0.00 86 1012.6
20260507213020 10 49 1.6 3.2 0.00 0.00 0.00 85 1012.6
20260507212522 10 49 0.0 3.2 0.00 0.00 0.00 85 1012.6
20260507212024 10 49 0.0 3.2 0.00 0.00 0.00 85 1012.5
20260507211524 10 49 1.6 3.2 0.00 0.00 0.00 85 1012.4
20260507211031 10 49 1.6 4.8 0.00 0.00 0.00 84 1012.4
20260507210552 10 49 1.6 3.2 0.00 0.00 0.00 84 1012.4
20260507210052 10 49 1.6 3.2 0.00 0.00 0.00 83 1012.4
20260507205533 10 73 0.0 3.2 0.00 0.00 0.00 83 1012.3
20260507205034 10 73 1.6 4.8 0.00 0.00 0.00 83 1012.2
20260507204535 10 72 3.2 4.8 0.00 0.00 0.00 83 1012.1
20260507204017 11 71 1.6 3.2 0.00 0.00 0.00 82 1012.0
20260507203520 11 71 0.0 3.2 0.00 0.00 0.00 82 1012.0
20260507203020 11 71 3.2 6.4 0.00 0.00 0.00 81 1012.0
20260507202523 11 71 4.8 8.0 0.00 0.00 0.00 80 1011.9
20260507202024 11 307 0.0 3.2 0.00 0.00 0.00 79 1011.9
20260507201520 11 307 0.0 1.6 0.00 0.00 0.00 79 1011.9
20260507201021 12 307 0.0 1.6 0.00 0.00 0.00 79 1011.8
20260507200521 12 307 0.0 1.6 0.00 0.00 0.00 78 1011.7
20260507200023 12 307 0.0 3.2 0.00 0.00 0.00 78 1011.6
20260507195550 12 307 1.6 4.8 0.00 0.00 0.00 78 1011.7
20260507195030 12 307 1.6 4.8 0.00 0.00 0.00 78 1011.6
20260507194527 12 307 1.6 4.8 0.00 0.00 0.00 78 1011.5
20260507194049 12 307 3.2 4.8 0.00 0.00 0.00 78 1011.4
20260507193530 12 111 1.6 4.8 0.00 0.00 0.00 78 1011.4
20260507193030 12 112 1.6 4.8 0.00 0.00 0.00 78 1011.2
20260507192532 12 115 3.2 3.2 0.00 0.00 0.00 78 1011.2
20260507192033 12 115 0.0 6.4 0.00 0.00 0.00 78 1011.0
20260507191534 12 116 3.2 9.7 0.00 0.00 0.00 77 1010.9
20260507191036 13 88 4.8 9.7 0.00 0.00 0.00 75 1011.0
20260507190557 13 65 6.4 11.3 0.00 0.00 0.00 74 1011.1
20260507190019 13 166 3.2 3.2 0.00 0.00 0.00 71 1011.2
20260507185521 13 181 1.6 6.4 0.00 0.00 0.00 70 1011.2
20260507185043 13 182 3.2 8.0 0.00 0.00 0.00 69 1011.3
20260507184526 13 196 3.2 8.0 0.00 0.00 0.00 69 1011.3
20260507184026 14 186 1.6 6.4 0.00 0.00 0.00 69 1011.4
20260507183526 14 187 3.2 6.4 0.00 0.00 0.00 68 1011.3
20260507183048 14 220 1.6 8.0 0.00 0.00 0.00 67 1011.3
20260507182529 14 255 3.2 9.7 0.00 0.00 0.00 65 1011.3
20260507182031 14 197 6.4 14.5 0.00 0.00 0.00 65 1011.4
20260507181532 15 214 8.0 14.5 0.00 0.00 0.00 65 1011.4
20260507181033 15 231 6.4 14.5 0.00 0.00 0.00 65 1011.3
20260507180534 15 199 6.4 14.5 0.00 0.00 0.00 65 1011.3
20260507180037 15 7 8.0 14.5 0.00 0.00 0.00 64 1011.3
20260507175533 16 218 4.8 12.9 0.00 0.00 0.00 63 1011.2
20260507175033 16 253 6.4 12.9 0.00 0.00 0.00 62 1011.2
20260507174556 16 299 4.8 17.7 0.00 0.00 0.00 62 1011.1
20260507174056 17 185 9.7 17.7 0.00 0.00 0.00 60 1011.0
20260507173517 17 179 1.6 3.2 0.00 0.00 0.00 62 1011.0
20260507173020 17 87 0.0 4.8 0.00 0.00 0.00 62 1010.9
20260507172542 17 87 1.6 6.4 0.00 0.00 0.00 65 1010.9
20260507172022 17 105 3.2 11.3 0.00 0.00 0.00 60 1010.8
20260507171524 17 133 3.2 9.7 0.00 0.00 0.00 59 1010.7
20260507171028 17 119 3.2 11.3 0.00 0.00 0.00 59 1010.8
20260507170531 17 110 4.8 12.9 0.00 0.00 0.00 57 1010.9
20260507170032 17 99 4.8 12.9 0.00 0.00 0.00 58 1010.9
20260507165533 17 123 8.0 12.9 0.00 0.00 0.00 58 1010.9
20260507165032 17 99 4.8 12.9 0.00 0.00 0.00 58 1010.9
20260507164533 17 56 8.0 14.5 0.00 0.00 0.00 57 1010.9
20260507164034 17 104 8.0 14.5 0.00 0.00 0.00 54 1010.9
20260507163535 18 7 6.4 11.3 0.00 0.00 0.00 56 1010.9
20260507163017 18 144 3.2 9.7 0.00 0.00 0.00 51 1010.9
20260507162540 18 139 4.8 9.7 0.00 0.00 0.00 50 1010.9
20260507162021 18 222 1.6 6.4 0.00 0.00 0.00 52 1010.8
20260507161523 18 148 1.6 12.9 0.00 0.00 0.00 53 1010.8
20260507161024 18 7 4.8 12.9 0.00 0.00 0.00 50 1010.8
20260507160518 19 167 6.4 9.7 0.00 0.00 0.00 48 1010.6
20260507160025 19 184 3.2 14.5 0.00 0.00 0.00 51 1010.5
20260507155525 19 147 3.2 14.5 0.00 0.00 0.00 53 1010.3
20260507155026 18 7 6.4 16.1 0.00 0.00 0.00 55 1010.1
20260507154535 18 96 8.0 22.5 0.00 0.00 0.00 55 1010.0
20260507154034 18 122 9.7 22.5 0.00 0.00 0.00 54 1010.0
20260507153536 18 107 11.3 17.7 0.00 0.00 0.00 56 1009.8
20260507153028 18 110 11.3 17.7 0.00 0.00 0.00 55 1010.0
20260507152530 18 124 11.3 17.7 0.00 0.00 0.00 58 1010.1
20260507152031 18 99 11.3 17.7 0.00 0.00 0.00 55 1010.3
20260507151534 18 102 6.4 19.3 0.00 0.00 0.00 58 1010.4
20260507151100 18 100 9.7 22.5 0.00 0.00 0.00 58 1010.6
20260507150538 18 108 11.3 22.5 0.00 0.00 0.00 55 1010.7
20260507150018 18 111 8.0 16.1 0.00 0.00 0.00 55 1010.8
20260507145540 18 147 4.8 16.1 0.00 0.00 0.00 57 1010.9
20260507145021 18 130 3.2 11.3 0.00 0.00 0.00 62 1010.9
20260507144522 18 141 4.8 11.3 0.00 0.00 0.00 57 1010.9
20260507144022 18 166 6.4 16.1 0.00 0.00 0.00 58 1010.9
20260507143524 18 135 6.4 16.1 0.00 0.00 0.00 59 1010.9
20260507143022 18 143 8.0 16.1 0.00 0.00 0.00 59 1010.9
20260507142540 18 157 4.8 17.7 0.00 0.00 0.00 58 1010.9
20260507142020 18 110 4.8 25.7 0.00 0.00 0.00 60 1010.9
20260507141530 17 7 6.4 25.7 0.00 0.00 0.00 59 1010.9
20260507141029 17 120 4.8 17.7 0.00 0.00 0.00 62 1011.0
20260507140529 17 129 8.0 19.3 0.00 0.00 0.00 59 1011.1
20260507140031 17 119 6.4 19.3 0.00 0.00 0.00 61 1011.2
20260507135532 18 66 8.0 17.7 0.00 0.00 0.00 57 1011.1
20260507135024 17 190 6.4 17.7 0.00 0.00 0.00 59 1011.1
20260507134526 17 133 9.7 19.3 0.00 0.00 0.00 57 1011.2
20260507134027 17 99 6.4 14.5 0.00 0.00 0.00 65 1011.2
20260507133534 17 7 8.0 16.1 0.00 0.00 0.00 64 1011.2
20260507133053 17 90 6.4 14.5 0.00 0.00 0.00 65 1011.2
20260507132533 17 111 6.4 11.3 0.00 0.00 0.00 65 1011.3
20260507132033 17 127 6.4 16.1 0.00 0.00 0.00 65 1011.4
20260507131534 16 75 11.3 16.1 0.00 0.00 0.00 66 1011.5
20260507131103 17 105 11.3 20.9 0.00 0.00 0.00 64 1011.6
20260507130518 17 84 9.7 14.5 0.00 0.00 0.00 63 1011.7
20260507130020 16 7 8.0 14.5 0.00 0.00 0.00 64 1011.9
20260507125520 16 97 6.4 14.5 0.00 0.00 0.00 62 1012.1
20260507125047 16 94 8.0 16.1 0.00 0.00 0.00 63 1012.1
20260507124525 16 83 8.0 16.1 0.00 0.00 0.00 64 1012.2
20260507124026 16 218 4.8 12.9 0.00 0.00 0.00 65 1012.3
20260507123528 15 133 4.8 14.5 0.00 0.00 0.00 65 1012.4
20260507123028 15 134 6.4 14.5 0.00 0.00 0.00 63 1012.5
20260507122529 15 174 9.7 16.1 0.00 0.00 0.00 63 1012.6
20260507122030 16 128 6.4 17.7 0.00 0.00 0.00 65 1012.6
20260507121532 16 126 8.0 17.7 0.00 0.00 0.00 63 1012.6
20260507121033 16 160 6.4 12.9 0.00 0.00 0.00 65 1012.5
20260507120534 16 133 3.2 14.5 0.00 0.00 0.00 64 1012.4
20260507120029 16 118 4.8 16.1 0.00 0.00 0.00 64 1012.4
20260507115526 16 136 8.0 16.1 0.00 0.00 0.00 62 1012.6
20260507115054 16 132 4.8 22.5 0.00 0.00 0.00 61 1012.5
20260507114554 16 112 8.0 22.5 0.00 0.00 0.00 60 1012.5
20260507114051 17 93 4.8 17.7 0.00 0.00 0.00 62 1012.4
20260507113558 17 122 8.0 17.7 0.00 0.00 0.00 59 1012.3
20260507113038 17 93 6.4 16.1 0.00 0.00 0.00 59 1012.3
20260507112537 17 133 6.4 16.1 0.00 0.00 0.00 59 1012.3
20260507112038 18 141 8.0 17.7 0.00 0.00 0.00 57 1012.2
20260507111540 18 108 6.4 17.7 0.00 0.00 0.00 61 1012.2
20260507111020 18 131 8.0 17.7 0.00 0.00 0.00 59 1012.2
20260507110541 17 104 4.8 16.1 0.00 0.00 0.00 59 1012.2
20260507110038 17 118 9.7 16.1 0.00 0.00 0.00 58 1012.2
20260507105519 17 132 3.2 12.9 0.00 0.00 0.00 61 1012.2
20260507105021 17 141 3.2 12.9 0.00 0.00 0.00 60 1012.2
20260507104557 17 7 4.8 14.5 0.00 0.00 0.00 60 1012.2
20260507104038 17 87 8.0 14.5 0.00 0.00 0.00 59 1012.2
20260507103520 17 103 6.4 12.9 0.00 0.00 0.00 59 1012.2
20260507103022 17 133 4.8 9.7 0.00 0.00 0.00 66 1012.3
20260507102521 16 90 1.6 12.9 0.00 0.00 0.00 68 1012.4
20260507102022 16 103 4.8 12.9 0.00 0.00 0.00 70 1012.4
20260507101522 16 37 3.2 6.4 0.00 0.00 0.00 68 1012.4
20260507101024 16 78 1.6 6.4 0.00 0.00 0.00 69 1012.6
20260507100525 15 83 3.2 11.3 0.00 0.00 0.00 72 1012.7
20260507100026 15 68 3.2 11.3 0.00 0.00 0.00 73 1012.7
20260507095526 15 70 4.8 11.3 0.00 0.00 0.00 74 1012.8
20260507095028 14 137 4.8 9.7 0.00 0.00 0.00 75 1012.9
20260507094549 13 137 1.6 4.8 0.00 0.00 0.00 78 1012.9
20260507094029 13 72 3.2 4.8 0.00 0.00 0.00 80 1013.0
20260507093550 13 74 1.6 4.8 0.00 0.00 0.00 82 1013.1
20260507093038 12 73 1.6 4.8 0.00 0.00 0.00 83 1013.1
20260507092556 12 74 3.2 4.8 0.00 0.00 0.00 86 1013.2
20260507092017 11 108 3.2 4.8 0.00 0.00 0.00 87 1013.1
20260507091538 11 109 1.6 4.8 0.00 0.00 0.00 88 1013.2
20260507091031 11 118 3.2 4.8 0.00 0.00 0.00 89 1013.3
20260507090532 11 178 3.2 4.8 0.00 0.00 0.00 92 1013.3
20260507090034 10 179 1.6 4.8 0.00 0.00 0.00 92 1013.3
20260507085536 10 203 3.2 6.4 0.00 0.00 0.00 94 1013.4
20260507085018 10 279 1.6 6.4 0.00 0.00 0.00 95 1013.4
20260507084521 10 256 3.2 4.8 0.00 0.00 0.00 96 1013.5
20260507084022 10 247 3.2 4.8 0.00 0.00 0.00 96 1013.5
20260507083520 10 274 1.6 4.8 0.00 0.00 0.00 96 1013.5
20260507083041 9 277 1.6 3.2 0.00 0.00 0.00 96 1013.5
20260507082544 9 326 1.6 4.8 0.00 0.00 0.00 96 1013.6
20260507082046 8 83 1.6 4.8 0.00 0.00 0.00 96 1013.6
20260507081524 8 85 1.6 4.8 0.00 0.00 0.00 96 1013.7
20260507081026 7 122 1.6 4.8 0.00 0.00 0.00 96 1013.8
20260507080528 7 91 1.6 4.8 0.00 0.00 0.00 96 1013.8
20260507080030 7 92 3.2 4.8 0.00 0.00 0.00 96 1013.8
20260507075532 8 335 0.0 1.6 0.00 0.00 0.00 96 1013.8
20260507075033 7 326 0.0 1.6 0.00 0.00 0.00 96 1013.8
20260507074535 7 327 0.0 1.6 0.00 0.00 0.00 96 1013.7
20260507074018 6 327 0.0 1.6 0.00 0.00 0.00 96 1013.7
20260507073519 6 327 0.0 3.2 0.00 0.00 0.00 96 1013.7
20260507073020 6 326 1.6 3.2 0.00 0.00 0.00 96 1013.7
20260507072523 6 326 0.0 3.2 0.00 0.00 0.00 96 1013.7
20260507072052 6 326 0.0 3.2 0.00 0.00 0.00 96 1013.7
20260507071531 6 58 0.0 0.0 0.00 0.00 0.00 96 1013.7
20260507071034 6 58 0.0 1.6 0.00 0.00 0.00 96 1013.7
20260507070556 6 58 0.0 1.6 0.00 0.00 0.00 96 1013.7
20260507070055 5 58 0.0 3.2 0.00 0.00 0.00 96 1013.7
20260507065536 5 59 1.6 3.2 0.00 0.10 0.00 96 1013.7
20260507065017 5 59 0.0 4.8 0.00 0.10 0.00 96 1013.7
20260507064518 5 60 0.0 4.8 0.00 0.10 0.00 96 1013.8
20260507064019 5 60 1.6 3.2 0.00 0.10 0.00 96 1013.8
20260507063521 5 60 0.0 3.2 0.00 0.10 0.00 96 1013.8
20260507063021 5 60 0.0 1.6 0.00 0.10 0.00 96 1013.8
20260507062524 5 60 0.0 1.6 0.00 0.10 0.00 96 1013.8
20260507062024 5 60 0.0 3.2 0.00 0.10 0.00 96 1013.9
20260507061526 5 60 0.0 3.2 0.00 0.10 0.00 96 1013.8
20260507061027 5 60 0.0 1.6 0.00 0.10 0.00 96 1013.9
20260507060528 5 60 0.0 3.2 0.00 0.10 0.00 95 1013.8
20260507060027 5 60 0.0 3.2 0.00 0.10 0.00 95 1013.8
20260507055525 5 60 0.0 3.2 0.00 0.10 0.00 95 1013.8
20260507055027 5 60 1.6 3.2 0.00 0.10 0.00 95 1013.8
20260507054531 5 62 1.6 4.8 0.00 0.10 0.00 95 1013.8
20260507054031 5 62 1.6 4.8 0.00 0.10 0.00 95 1013.8
20260507053532 5 64 1.6 4.8 0.00 0.10 0.00 95 1013.8
20260507053032 5 64 1.6 4.8 0.00 0.10 0.00 95 1013.8
20260507052534 5 57 0.0 3.2 0.00 0.10 0.00 95 1013.9
20260507052036 5 57 1.6 3.2 0.00 0.10 0.00 95 1013.9
20260507051538 5 57 1.6 4.8 0.00 0.10 0.00 95 1013.8
20260507051017 5 57 0.0 4.8 0.00 0.10 0.00 95 1013.8
20260507050519 5 52 0.0 3.2 0.00 0.10 0.00 95 1013.8
20260507050020 5 52 0.0 4.8 0.00 0.10 0.00 95 1013.7
20260507045521 5 51 1.6 4.8 0.00 0.10 0.00 95 1013.7
20260507045019 5 152 1.6 3.2 0.00 0.10 0.00 95 1013.8
20260507044520 5 157 0.0 3.2 0.00 0.10 0.00 95 1013.9
20260507044043 5 162 0.0 3.2 0.00 0.10 0.00 95 1013.9
20260507043525 5 178 0.0 0.0 0.00 0.10 0.00 95 1014.0
20260507043029 5 179 0.0 0.0 0.00 0.10 0.00 95 1014.0
20260507042530 5 179 0.0 0.0 0.00 0.10 0.00 95 1013.9
20260507042032 5 180 0.0 0.0 0.00 0.10 0.00 95 1013.9
20260507041533 5 180 0.0 0.0 0.00 0.10 0.00 95 1014.0
20260507041034 5 180 0.0 0.0 0.00 0.10 0.00 95 1014.0
20260507040529 5 180 0.0 0.0 0.00 0.10 0.00 95 1014.0
20260507040029 5 180 0.0 0.0 0.00 0.10 0.00 95 1014.0
20260507035552 5 180 0.0 0.0 0.00 0.10 0.00 95 1014.0
20260507035032 5 180 0.0 1.6 0.00 0.10 0.00 95 1014.0
20260507034533 5 180 0.0 1.6 0.00 0.10 0.00 95 1014.0
20260507034034 5 182 0.0 1.6 0.00 0.10 0.00 95 1014.1
20260507033537 5 182 0.0 0.0 0.00 0.10 0.00 95 1014.1
20260507033018 5 182 0.0 0.0 0.00 0.10 0.00 95 1014.2
20260507032521 5 182 0.0 0.0 0.00 0.10 0.00 95 1014.2
20260507032024 5 182 0.0 0.0 0.00 0.10 0.00 95 1014.2
20260507031526 5 182 0.0 0.0 0.00 0.10 0.00 95 1014.1
20260507031026 5 182 0.0 1.6 0.00 0.10 0.00 95 1014.2
20260507030526 5 182 0.0 3.2 0.00 0.10 0.00 95 1014.1
20260507030026 5 182 1.6 3.2 0.00 0.10 0.00 95 1014.2
20260507025526 5 93 0.0 0.0 0.00 0.10 0.00 95 1014.1
20260507025027 5 93 0.0 0.0 0.00 0.10 0.00 95 1014.0
20260507024527 4 93 0.0 0.0 0.00 0.10 0.00 95 1014.1
20260507024030 4 93 0.0 1.6 0.00 0.10 0.00 95 1014.1
20260507023532 4 93 0.0 1.6 0.00 0.10 0.00 95 1014.1
20260507023032 4 93 0.0 1.6 0.00 0.10 0.00 95 1014.2
20260507022536 4 93 0.0 1.6 0.00 0.10 0.00 95 1014.2
20260507022034 3 93 0.0 1.6 0.00 0.10 0.00 95 1014.2
20260507021535 3 93 0.0 0.0 0.00 0.10 0.00 95 1014.2
20260507021018 3 93 0.0 0.0 0.00 0.10 0.00 95 1014.3
20260507020521 3 93 0.0 0.0 0.00 0.10 0.00 95 1014.3
20260507020022 3 93 0.0 0.0 0.00 0.10 0.00 95 1014.4
20260507015525 3 93 0.0 0.0 0.00 0.10 0.00 94 1014.4
20260507015024 3 94 0.0 0.0 0.00 0.10 0.00 94 1014.5
20260507014531 3 94 0.0 0.0 0.00 0.10 0.00 94 1014.4
20260507014032 3 94 0.0 0.0 0.00 0.10 0.00 94 1014.4
20260507013533 3 94 0.0 1.6 0.00 0.10 0.00 94 1014.4
20260507013033 3 94 0.0 1.6 0.00 0.10 0.00 94 1014.4
20260507012533 3 94 0.0 1.6 0.00 0.10 0.00 94 1014.4
20260507012032 3 93 0.0 0.0 0.00 0.10 0.00 94 1014.5
20260507011534 3 93 0.0 0.0 0.00 0.10 0.00 94 1014.5
20260507011034 3 93 0.0 1.6 0.00 0.10 0.00 94 1014.6
20260507010535 3 93 0.0 3.2 0.00 0.10 0.00 94 1014.5
20260507010057 3 93 0.0 0.0 0.00 0.10 0.00 94 1014.5
20260507005536 3 93 0.0 0.0 0.00 0.10 0.00 94 1014.6